This is the latest recevied weather packets stored in our database for station/object KC5DP. If no packets are shown the sender has not sent any weather packets the latest 10 day(s).
| Time | Temp. | Humidity | Pressure | Rain* | Wind** | Luminosity | Snow |
|---|---|---|---|---|---|---|---|
| 1777426816 | 25° C | 82% | 1013.4 hPa | 0 mm | - | 0 W/m² | - |
| 1777426507 | 25° C | 81% | 1013.2 hPa | 0 mm | - | 0 W/m² | - |
| 1777426203 | 25° C | 82% | 1013.1 hPa | 0 mm | - | 0 W/m² | - |
| 1777425898 | 25° C | 82% | 1013.3 hPa | 0 mm | - | 0 W/m² | - |
| 1777425593 | 25° C | 81% | 1013.4 hPa | 0 mm | - | 0 W/m² | - |
| 1777425290 | 25.56° C | 81% | 1013.4 hPa | 0 mm | - | 0 W/m² | - |
| 1777424987 | 25.56° C | 80% | 1013.5 hPa | 0 mm | - | 0 W/m² | - |
| 1777424681 | 25.56° C | 79% | 1013.1 hPa | 0 mm | - | 0 W/m² | - |
| 1777424377 | 25.56° C | 79% | 1013.1 hPa | 0 mm | - | 0 W/m² | - |
| 1777424072 | 25.56° C | 78% | 1013.1 hPa | 0 mm | - | 0 W/m² | - |
| 1777423771 | 26.11° C | 77% | 1013.4 hPa | 0 mm | - | 0 W/m² | - |
| 1777423467 | 26.11° C | 77% | 1013.3 hPa | 0 mm | - | 1 W/m² | - |
| 1777423161 | 26.11° C | 77% | 1013.4 hPa | 0 mm | - | 2 W/m² | - |
| 1777422856 | 26.11° C | 76% | 1013.4 hPa | 0 mm | - | 3 W/m² | - |
| 1777422552 | 26.11° C | 76% | 1013.3 hPa | 0 mm | - | 5 W/m² | - |
| 1777422248 | 26.67° C | 75% | 1013.1 hPa | 0 mm | - | 7 W/m² | - |
| 1777421946 | 26.67° C | 75% | 1013.6 hPa | 0 mm | - | 9 W/m² | - |
| 1777421642 | 26.67° C | 75% | 1013.4 hPa | 0 mm | - | 14 W/m² | - |
| 1777421336 | 26.67° C | 74% | 1013.5 hPa | 0 mm | - | 19 W/m² | - |
| 1777421034 | 26.67° C | 74% | 1013.2 hPa | 0 mm | - | 23 W/m² | - |
| 1777420730 | 27.22° C | 74% | 1013.5 hPa | 0 mm | - | 26 W/m² | - |
| 1777420426 | 27.22° C | 73% | 1013.5 hPa | 0 mm | - | 29 W/m² | - |
| 1777420123 | 27.22° C | 73% | 1013.4 hPa | 0 mm | - | 34 W/m² | - |
| 1777419819 | 27.22° C | 73% | 1013.2 hPa | 0 mm | - | 38 W/m² | - |
| 1777419517 | 27.78° C | 73% | 1013.2 hPa | 0 mm | - | 44 W/m² | - |
* Rain latest hour (hover to see other rain measurements)
** Current wind speed in m/s (hover to see current wind gust speed)